[[{"header":{"parameterUnit":"m.s-1","parameterCategory":1,"la1":30.2991,"la2":30.254,"lo1":-89.0895,"lo2":-89.0444,"dy":0.0017,"dx":0.0017,"nx":28,"ny":28,"refTime":"2024-03-05T09:00:00:Z","depth":0,"parameterNumber":2,"parameterNumberName":"U-component_of_WINDS"},"data":[0,0,0,0,0,0,0,0,0,0,0,0,0,0,0,0,0,0,0,0,0,0,0,0,0,0,0,0,0,0,0,0,0,0,0,0,0,0,0,0,0,0,0,0,0,0,0,0,0,0,0,0,0,0,0,0,0,0,0.2928,0.2929,0,0.2993,0.2993,0.2994,0.3067,0.3068,0.3069,0.307,0.3139,0.3139,0.314,0,0,0,0,0,0,0,0,0,0,0,0,0,0.2871,0.2871,0.2928,0.2929,0.293,0.2992,0.2993,0.2994,0.3067,0.3068,0.3069,0.3071,0.3138,0.3139,0.314,0,0,0,0,0,0,0,0,0,0,0,0,0,0.2911,0.2871,0.2928,0.2973,0.2978,0.2992,0.2993,0.2994,0.3066,0.3068,0.307,0.3071,0.3138,0.3139,0.314,0.3116,0,0,0.3144,0.3145,0,0,0,0,0,0,0,0,0.2909,0.2913,0.2966,0.297,0.2976,0.3023,0.2998,0.3035,0.3066,0.3033,0.307,0.3072,0.3099,0.3104,0.3112,0.3119,0.3122,0.3144,0.3145,0.3146,0.3146,0,0,0,0,0,0,0,0.2906,0.2911,0.2954,0.2967,0.2972,0.2991,0.2999,0.3006,0.3056,0.3036,0.3041,0.3048,0.3102,0.3111,0.3114,0.3123,0.3144,0.3145,0.3146,0.3147,0.3114,0.3112,0,0,0,0,0,0,0.2896,0.2908,0.2952,0.2956,0.2945,0.2991,0.3,0.3006,0.3056,0.3066,0.3046,0.3051,0.3108,0.3113,0.3117,0.3092,0.3146,0.3147,0.3147,0.3116,0.3114,0.3112,0,0,0,0,0,0,0.2894,0.2899,0.2949,0.2933,0.2941,0.299,0.2997,0.3007,0.3016,0.3064,0.3074,0.3046,0.3109,0.3115,0.3116,0.3095,0.3147,0.3148,0.3117,0.3115,0.3113,0.3041,0,0,0,0,0,0,0.2892,0.2898,0.2888,0.2933,0.2942,0.2945,0.2996,0.3007,0.3017,0.3024,0.3066,0.3075,0.3111,0.3113,0.3117,0.3098,0.3149,0.3119,0.3116,0.3113,0.3045,0.3036,0.3029,0,0,0,0,0,0.289,0.2866,0.2888,0.2892,0.293,0.2944,0.2949,0.2991,0.3015,0.3007,0.3038,0.3074,0.3097,0.3113,0.3117,0.3098,0.3121,0.3117,0.3114,0.3049,0.3038,0.3029,0,0,0,0,0,0,0.2819,0.2873,0.2897,0.2886,0.291,0.2956,0.2946,0.2978,0.2995,0.3001,0.3052,0.3061,0.3055,0.3077,0.3094,0.3078,0.3114,0.3111,0.3064,0.3054,0.3045,0.304,0.315,0,0,0,0,0,0.2802,0.2807,0.2854,0.284,0.2851,0.2896,0.2904,0.2934,0.296,0.2971,0.3002,0.3028,0.3041,0.3049,0.3064,0.3049,0.306,0.3039,0.303,0.3023,0.302,0.3015,0.3006,0.31,0.31,0.31,0,0,0.2767,0.2797,0.2797,0.2827,0.2849,0.2854,0.2904,0.2908,0.2913,0.2972,0.2974,0.2998,0.303,0.3022,0.3021,0.304,0.2997,0.3019,0.3013,0.3013,0.301,0.3001,0.2993,0.3098,0.3098,0.3098,0,0,0.2706,0.2729,0.272,0.2741,0.2773,0.2803,0.2801,0.2843,0.286,0.2863,0.2908,0.2915,0.2937,0.2958,0.2971,0.2919,0.2952,0.2922,0.2879,0.2873,0.2866,0.2859,0.2841,0.2834,0.2919,0.2919,0.2919,0,0.2658,0.2667,0.2711,0.2712,0.2724,0.2778,0.2769,0.2788,0.2823,0.2831,0.2852,0.2881,0.2906,0.2905,0.2892,0.2901,0.2901,0.2917,0.2863,0.2857,0.2852,0.2835,0.2828,0.2915,0.2915,0.2916,0.2916,0,0.2608,0.2613,0.2602,0.2634,0.2645,0.2642,0.2686,0.2692,0.2721,0.275,0.2753,0.2785,0.2807,0.281,0.2838,0.2813,0.2824,0.2853,0.2891,0.2838,0.2823,0.2817,0.2909,0.2911,0.2912,0.2913,0,0,0.2503,0.256,0.2555,0.257,0.261,0.2616,0.2615,0.2636,0.2641,0.2664,0.2665,0.2682,0.271,0.2725,0.2757,0.2752,0.2709,0.2782,0.2784,0.2768,0.2683,0.2661,0.2652,0.2732,0.2731,0.273,0.2681,0,0.2449,0.2449,0.2489,0.2479,0.2486,0.2537,0.2536,0.2561,0.2588,0.2598,0.2629,0.264,0.2675,0.2685,0.2682,0.2714,0.2693,0.2719,0.2734,0.2734,0.2724,0.2644,0.262,0.2572,0.2675,0.2674,0.2673,0,0.2385,0.2404,0.2394,0.2435,0.2439,0.2437,0.246,0.2469,0.2499,0.2519,0.2536,0.2572,0.2576,0.2611,0.2617,0.2634,0.2643,0.266,0.2659,0.2662,0.27,0.2645,0.2558,0.2551,0.2665,0.2665,0.2666,0,0.231,0.2333,0.233,0.2342,0.2389,0.2387,0.2406,0.2438,0.2448,0.2469,0.2476,0.2497,0.2509,0.2525,0.2566,0.2588,0.2568,0.2607,0.2585,0.2584,0.2578,0.2578,0.2491,0.2584,0.2584,0.2584,0.2584,0,0.2245,0.2237,0.2297,0.2295,0.2288,0.2335,0.2327,0.2352,0.2379,0.2384,0.243,0.2434,0.2488,0.2499,0.2531,0.2531,0.2536,0.2553,0.2562,0.2549,0.2547,0.2555,0.256,0.2582,0.2583,0.2583,0.2583,0,0.2159,0.2199,0.2199,0.2244,0.2255,0.2247,0.2286,0.2287,0.2317,0.2323,0.2327,0.2374,0.2389,0.2432,0.2457,0.2479,0.247,0.2487,0.2459,0.2465,0.2441,0.2443,0.2357,0.2348,0.2446,0.2445,0.2444,0,0.2115,0.211,0.2154,0.216,0.2178,0.2187,0.2198,0.2244,0.2254,0.2288,0.2284,0.2303,0.2319,0.2341,0.2378,0.2398,0.2416,0.2384,0.2419,0.2406,0.2415,0.2415,0.2415,0.2376,0.2375,0.2374,0.2373,0,0.2033,0.2053,0.2066,0.2086,0.2097,0.2116,0.2137,0.2139,0.2192,0.22,0.2215,0.2228,0.2254,0.2272,0.2298,0.232,0.2355,0.2362,0.2358,0.2344,0.2329,0.2337,0.2439,0.2364,0.2365,0.2365,0.2366,0.2366,0.1967,0.1965,0.1995,0.2009,0.2029,0.2048,0.2051,0.2081,0.2094,0.2118,0.2145,0.2157,0.2189,0.2227,0.2247,0.2258,0.2277,0.2271,0.2269,0.2267,0.2261,0.2327,0.2263,0.2263,0.2263,0.2264,0.2264,0,0.1887,0.1909,0.1921,0.1949,0.1959,0.1991,0.2016,0.2023,0.2033,0.2058,0.2074,0.2092,0.2109,0.2148,0.217,0.2171,0.2188,0.2175,0.2175,0.218,0.2243,0.2244,0.2161,0.2161,0.2161,0.2161,0.2161,0.2161,0.1847,0.1845,0.1868,0.1878,0.1901,0.1912,0.1924,0.1942,0.1962,0.1979,0.1994,0.2019,0.205,0.2074,0.2092,0.2104,0.211,0.2091,0.2108,0.2166,0.2176,0.2185,0.2186,0.2092,0.2092,0.2044,0.2043,0.2043]},{"header":{"parameterUnit":"m.s-1","parameterCategory":1,"la1":30.2991,"la2":30.254,"lo1":-89.0895,"lo2":-89.0444,"dy":0.0017,"dx":0.0017,"nx":28,"ny":28,"refTime":"2024-03-05T09:00:00:Z","depth":0,"parameterNumber":3,"parameterNumberName":"V-component_of_WINDS"},"data":[0,0,0,0,0,0,0,0,0,0,0,0,0,0,0,0,0,0,0,0,0,0,0,0,0,0,0,0,0,0,0,0,0,0,0,0,0,0,0,0,0,0,0,0,0,0,0,0,0,0,0,0,0,0,0,0,0,0,-0.5139,-0.5139,0,-0.5167,-0.5167,-0.5167,-0.5153,-0.5152,-0.5152,-0.5151,-0.5181,-0.5182,-0.5183,0,0,0,0,0,0,0,0,0,0,0,0,0,-0.5075,-0.5076,-0.5139,-0.5139,-0.514,-0.5167,-0.5167,-0.5167,-0.5153,-0.5152,-0.5151,-0.515,-0.518,-0.5182,-0.5184,0,0,0,0,0,0,0,0,0,0,0,0,0,-0.5103,-0.5077,-0.5139,-0.5136,-0.5136,-0.5167,-0.5167,-0.5168,-0.5153,-0.5152,-0.5151,-0.515,-0.5179,-0.5182,-0.5184,-0.522,0,0,-0.5191,-0.5192,0,0,0,0,0,0,0,0,-0.5101,-0.5105,-0.5136,-0.5136,-0.5136,-0.5155,-0.5155,-0.5185,-0.5154,-0.5147,-0.5151,-0.515,-0.5173,-0.5176,-0.5183,-0.5221,-0.5222,-0.5191,-0.5192,-0.5193,-0.5194,0,0,0,0,0,0,0,-0.5099,-0.5104,-0.515,-0.5136,-0.5136,-0.5133,-0.5136,-0.5161,-0.5166,-0.5147,-0.5146,-0.515,-0.5173,-0.5181,-0.5184,-0.5223,-0.5191,-0.5193,-0.5194,-0.5195,-0.5292,-0.5293,0,0,0,0,0,0,-0.5097,-0.5102,-0.5149,-0.5151,-0.5115,-0.5135,-0.5138,-0.515,-0.5165,-0.5167,-0.5151,-0.5149,-0.5178,-0.5181,-0.5185,-0.5228,-0.5193,-0.5195,-0.5196,-0.5291,-0.5292,-0.5294,0,0,0,0,0,0,-0.5096,-0.5102,-0.5148,-0.5126,-0.5132,-0.5138,-0.5151,-0.5151,-0.516,-0.5168,-0.5169,-0.5158,-0.5177,-0.5182,-0.5211,-0.5229,-0.5196,-0.5198,-0.5289,-0.5291,-0.5293,-0.5315,0,0,0,0,0,0,-0.5094,-0.5101,-0.5114,-0.5127,-0.5133,-0.5173,-0.5152,-0.5153,-0.5163,-0.5161,-0.5175,-0.5177,-0.5177,-0.5208,-0.5213,-0.5231,-0.52,-0.5288,-0.529,-0.5292,-0.5313,-0.5317,-0.5321,0,0,0,0,0,-0.5092,-0.512,-0.5115,-0.5121,-0.515,-0.5174,-0.5178,-0.5177,-0.5165,-0.5179,-0.5184,-0.5176,-0.5226,-0.5211,-0.5217,-0.5236,-0.5287,-0.529,-0.5292,-0.5311,-0.5316,-0.5321,0,0,0,0,0,0,-0.511,-0.5121,-0.5116,-0.5149,-0.5161,-0.5172,-0.5189,-0.5183,-0.5199,-0.5197,-0.5196,-0.5199,-0.5229,-0.5236,-0.5219,-0.5272,-0.5255,-0.5259,-0.5267,-0.5272,-0.5276,-0.5274,-0.5202,0,0,0,0,0,-0.5117,-0.5136,-0.5145,-0.5173,-0.5179,-0.5183,-0.5194,-0.5192,-0.5204,-0.5209,-0.5217,-0.523,-0.5248,-0.5261,-0.5278,-0.5314,-0.5317,-0.533,-0.5334,-0.5338,-0.5341,-0.5361,-0.5367,-0.5303,-0.5303,-0.5303,0,0,-0.5133,-0.5142,-0.5153,-0.5176,-0.5185,-0.5205,-0.5187,-0.5209,-0.5223,-0.5213,-0.5241,-0.5247,-0.5261,-0.5294,-0.5309,-0.53,-0.536,-0.5341,-0.5344,-0.5346,-0.5364,-0.537,-0.5376,-0.5305,-0.5305,-0.5304,0,0,-0.5172,-0.518,-0.5204,-0.5214,-0.5228,-0.523,-0.5236,-0.5249,-0.5252,-0.528,-0.5273,-0.5291,-0.5323,-0.5333,-0.5343,-0.5387,-0.538,-0.5393,-0.5415,-0.5434,-0.5439,-0.5444,-0.5459,-0.5465,-0.5396,-0.5396,-0.5396,0,-0.519,-0.5219,-0.5218,-0.5239,-0.525,-0.5242,-0.5266,-0.5276,-0.5295,-0.5302,-0.5293,-0.5333,-0.5342,-0.5377,-0.5388,-0.5396,-0.5403,-0.5391,-0.5439,-0.5443,-0.5447,-0.5462,-0.5468,-0.5398,-0.5398,-0.5397,-0.5397,0,-0.524,-0.526,-0.5278,-0.5297,-0.5309,-0.5332,-0.5335,-0.5348,-0.5346,-0.535,-0.5379,-0.539,-0.541,-0.5418,-0.5416,-0.5453,-0.5448,-0.5438,-0.5421,-0.5455,-0.5469,-0.5474,-0.54,-0.5399,-0.5399,-0.5399,0,0,-0.529,-0.5308,-0.5314,-0.5323,-0.5338,-0.5354,-0.5377,-0.5396,-0.5407,-0.5421,-0.5441,-0.5469,-0.546,-0.5471,-0.5471,-0.5488,-0.5522,-0.5476,-0.5477,-0.5484,-0.5564,-0.557,-0.5577,-0.5518,-0.5519,-0.552,-0.5562,0,-0.533,-0.5369,-0.537,-0.5407,-0.5425,-0.5418,-0.5439,-0.5451,-0.5455,-0.5472,-0.5478,-0.5497,-0.5485,-0.5492,-0.5508,-0.5514,-0.5538,-0.5511,-0.5537,-0.5537,-0.5533,-0.5584,-0.5591,-0.563,-0.5568,-0.5569,-0.5569,0,-0.5381,-0.5396,-0.5435,-0.5448,-0.5456,-0.5474,-0.5492,-0.5508,-0.5522,-0.5524,-0.5537,-0.5534,-0.5558,-0.554,-0.5574,-0.5556,-0.5567,-0.5572,-0.5573,-0.5575,-0.5555,-0.5587,-0.5642,-0.5648,-0.5578,-0.5577,-0.5577,0,-0.5413,-0.5443,-0.547,-0.5478,-0.5494,-0.5507,-0.5514,-0.5526,-0.5538,-0.5554,-0.5562,-0.5581,-0.5591,-0.5606,-0.5608,-0.5595,-0.5642,-0.5625,-0.5645,-0.5645,-0.5655,-0.5654,-0.5713,-0.5663,-0.5662,-0.5662,-0.5662,0,-0.5457,-0.5481,-0.5485,-0.5502,-0.5529,-0.5529,-0.5556,-0.5562,-0.5574,-0.5592,-0.5588,-0.5605,-0.5608,-0.5626,-0.5628,-0.5656,-0.5661,-0.5664,-0.5664,-0.5664,-0.5663,-0.567,-0.5667,-0.5664,-0.5664,-0.5663,-0.5663,0,-0.5496,-0.55,-0.5529,-0.5542,-0.5546,-0.5565,-0.5576,-0.5593,-0.5597,-0.5621,-0.5626,-0.5634,-0.5655,-0.5659,-0.5684,-0.5686,-0.5719,-0.5717,-0.5714,-0.5714,-0.5734,-0.5732,-0.5798,-0.5807,-0.5752,-0.5752,-0.5753,0,-0.5524,-0.5542,-0.5557,-0.5569,-0.5576,-0.5595,-0.5607,-0.5609,-0.5622,-0.5639,-0.5654,-0.5674,-0.5691,-0.5726,-0.5734,-0.5753,-0.5751,-0.5773,-0.5754,-0.5754,-0.5751,-0.575,-0.5752,-0.5777,-0.5777,-0.5778,-0.5778,0,-0.5572,-0.5573,-0.559,-0.5608,-0.5622,-0.5637,-0.5651,-0.5661,-0.5664,-0.5679,-0.5701,-0.5714,-0.574,-0.5761,-0.578,-0.5788,-0.5784,-0.5784,-0.579,-0.579,-0.5787,-0.5789,-0.5724,-0.5782,-0.5782,-0.5782,-0.5781,-0.5781,-0.5606,-0.5622,-0.5635,-0.5654,-0.5665,-0.5678,-0.5694,-0.5701,-0.5719,-0.574,-0.574,-0.5764,-0.5778,-0.5804,-0.5813,-0.5832,-0.5826,-0.5834,-0.5836,-0.5838,-0.584,-0.5785,-0.5836,-0.5836,-0.5836,-0.5836,-0.5836,0,-0.5654,-0.5662,-0.568,-0.5699,-0.5714,-0.5709,-0.5724,-0.5738,-0.5758,-0.5772,-0.5788,-0.5814,-0.5834,-0.5844,-0.5865,-0.5878,-0.5877,-0.5883,-0.5882,-0.5884,-0.5845,-0.5837,-0.5884,-0.5884,-0.5884,-0.5884,-0.5884,-0.5884,-0.568,-0.5707,-0.571,-0.5742,-0.5751,-0.5773,-0.5783,-0.5795,-0.5806,-0.5834,-0.5851,-0.5857,-0.5869,-0.5891,-0.591,-0.5912,-0.592,-0.5927,-0.5929,-0.5892,-0.5887,-0.5882,-0.5875,-0.5929,-0.5929,-0.5967,-0.5967,-0.5967]}]]